Location: ????????
(55.1591°N, 39.1782°E)
Time: 01:51:39
(UTC+00:00)

Cosmos 923 Rocket - Pass Details

Date: 14 April 2024
Orbit: 755 x 784 km, 74.0° (Epoch: 28 May)

Event Time Altitude Azimuth Distance (km) Brightness Sun altitude
Exits shadow 01:02:23 - 198° (SSW) 2,478 6.2 -10.9°
Reaches altitude 10° 01:02:52 10° 198° (SSW) 2,296 6.0 -10.9°
Maximum altitude 01:08:03 74° 114° (ESE) 802 4.2 -10.3°
Drops below altitude 10° 01:13:20 10° 30° (NNE) 2,330 7.6 -9.6°
Sets 01:15:44 0° 29° (NNE) 3,266 8.4 -9.3°
